Regional Weather Roundup
Issued by NWS Jackson, KY

Home | Current Version | Previous Version | Text Only | Print | Product List | Glossary Off
Versions: 1 2 3 4 5 6 7 8 9 10 11 12 13 14 15 16 17 18 19 20 21 22 23 24 25 26 27 28 29 30 31 32 33 34 35 36 37 38 39 40 41 42 43 44 45 46 47 48 49 50

000
ASUS43 KJKL 062310
RWRJKL

EAST KENTUCKY HOURLY WEATHER ROUNDUP
NATIONAL WEATHER SERVICE JACKSON KY
600 PM EST FRI MAR 06 2015

NOTE: "FAIR" INDICATES FEW OR NO CLOUDS BELOW 12,000 FEET WITH
NO SIGNIFICANT WEATHER AND/OR OBSTRUCTIONS TO VISIBILITY.

* THESE REPORTS ARE NOT UNDER NWS QUALITY CONTROL AND MAY NOT
  REPORT WEATHER SUCH AS PRECIPITATION AND FOG.

KYZ079-080-083-085-087-088-110-112-115-119-120-070000
...EASTERN KENTUCKY...

CITY           SKY/WX    TMP DP  RH WIND       PRES   REMARKS
JACKSON        CLEAR     30  10  43 VRB3      30.38F
LONDON         CLEAR     32  11  41 CALM      30.40F
SOMERSET*      CLEAR     30  10  43 CALM      30.45S
MONTICELLO*    CLEAR     32  13  45 CALM      30.46F
MIDDLESBORO*   CLEAR     35  13  40 NW3       30.41S
HAZARD APT*    CLEAR     32   9  37 W7        30.39F WCI  26
BLACK MTN*       N/A     21  19  93 CALM        N/A
PIKEVILLE APT* CLEAR     28  12  50 CALM      30.37F
BIG SANDY*     CLEAR     30  13  48 CALM      30.39S
MOREHEAD APT*  CLEAR     25  10  54 W3        30.44S
$$

KYZ035-036-041-042-044-050-067-078-099-070000
...CENTRAL KENTUCKY...

CITY           SKY/WX    TMP DP  RH WIND       PRES   REMARKS
MT STERLING*   CLEAR     27  12  54 SW5       30.43F WCI  21
FLEMING/MASON* CLEAR     21  12  68 SW5       30.43F WCI  15
DANVILLE*      CLEAR     27  12  54 CALM      30.43S
RICHMOND*      CLEAR     27  12  54 CALM      30.42S
LEXINGTON      CLEAR     24  12  60 S8        30.41F WCI  15
FRANKFORT      CLEAR     27  11  51 S7        30.41F WCI  19
$$

KYZ091>093-OHZ055-061-077-WVZ005-015-034-035-042-070000
...SOUTHERN OHIO/WEST VIRGINIA...

CITY           SKY/WX    TMP DP  RH WIND       PRES   REMARKS
COVINGTON      PTCLDY    27   8  44 SW13      30.38F WCI  16
COLUMBUS       PTCLDY    22   6  50 S12       30.38F WCI  10
DAYTON         PTCLDY    27  10  49 S14       30.34F WCI  16
WILMINGTON     CLEAR     22   9  57 S12       30.36F WCI  10
HUNTINGTON     CLEAR     26  16  65 CALM      30.42S
CHARLESTON     CLEAR     27  16  63 CALM      30.40S
PINEVILLE*     CLEAR     31  17  57 MISG      30.39S
BECKLEY        CLEAR     28   8  43 W7        30.29S WCI  21
BLUEFIELD      CLEAR     30  17  58 W8        30.28S WCI  22
$$

VAZ002-007-008-TNZ017-027-036-066-071-070000
...SOUTHWEST VIRGINIA/EAST TENNESSEE...

CITY           SKY/WX    TMP DP  RH WIND       PRES   REMARKS
WISE*          CLEAR     32  18  55 SW7       30.32S WCI  26
JONESVILLE*    CLEAR     34  14  44 SW5       30.41S WCI  30
ABINGDON*      CLEAR     33  16  48 W5        30.35S WCI  29
BRISTOL        PTCLDY    35  14  42 NW7       30.38S WCI  29
KNOXVILLE      CLEAR     38  18  44 CALM      30.42S
OAK RIDGE      CLEAR     41  15  35 VRB6      30.42F
CROSSVILLE     CLEAR     34  14  43 W5        30.38S WCI  30
NASHVILLE      CLEAR     36  13  38 CALM      30.47F
$$

...KEY TO REMARKS...
VSB - VISIBILITY IN MILES
WCI - WIND CHILL INDEX
HX  - HEAT INDEX

$$



USA.gov is the U.S. government's official web portal to all federal, state and local government web resources and services.